Consulta los datos en tiempo real de la estación meteorológica de Parc Astronòmic del Montsec
| Hora UTC | 18:30 |
|---|---|
| Temperatura | 12.7 ºC |
| Humedad | 79.0 % |
| Presión | 1010.9 hPa |
| Pluja | 0.2 mm |
| Velocidad viento | 6.4 km/h |
| Dirección viento | N |
| Temperatura (ºC) | Humedad (%) | Presión (hPa) | Velocidad viento (km/h) | Precipitación (mm) | ||||||||||||
|---|---|---|---|---|---|---|---|---|---|---|---|---|---|---|---|---|
| Hora UTC | Aire | Humedad | Presión | Vel. | Dir. | Vel. Max | Dir. | Intent. máx 5 min. | ||||||||
| 00:15 | 10.9 | 89.0 | 1013.5 | 3.2 | 0.0 | |||||||||||
| 00:30 | 10.8 | 88.0 | 1013.3 | NNE | 3.2 | 0.0 | ||||||||||
| 00:45 | 10.6 | 88.0 | 1013.3 | 1.6 | 3.2 | 0.0 | ||||||||||
| 01:00 | 10.4 | 88.0 | 1013.3 | NNE | 3.2 | 0.0 | ||||||||||
| 01:15 | 10.0 | 87.0 | 1013.1 | 4.8 | 4.8 | NNE | 0.0 | |||||||||
| 01:30 | 10.1 | 85.0 | 1012.7 | NNE | 4.8 | NNE | 0.0 | |||||||||
| 01:45 | 9.9 | 86.0 | 1012.7 | 3.2 | 4.8 | NNE | 0.0 | |||||||||
| 02:00 | 9.6 | 87.0 | 1012.7 | NNE | 4.8 | NNE | 0.0 | |||||||||
| 02:15 | 9.4 | 87.0 | 1012.8 | NNE | 4.8 | NNE | 0.0 | |||||||||
| 02:30 | 9.6 | 86.0 | 1012.7 | 1.6 | N | 4.8 | NNE | 0.0 | ||||||||
| 02:45 | 9.6 | 84.0 | 1012.7 | 1.6 | 4.8 | NNE | 0.0 | |||||||||
| 03:00 | 9.4 | 83.0 | 1012.8 | 1.6 | N | 4.8 | NNE | 0.0 | ||||||||
| 03:15 | 9.3 | 86.0 | 1012.9 | 1.6 | 4.8 | NNE | 0.0 | |||||||||
| 03:30 | 9.8 | 85.0 | 1012.8 | NNE | 4.8 | NNE | 0.0 | |||||||||
| 03:45 | 10.3 | 84.0 | 1012.4 | 1.6 | 4.8 | NNE | 0.0 | |||||||||
| 04:00 | 10.4 | 84.0 | 1012.2 | 1.6 | N | 4.8 | NNE | 0.0 | ||||||||
| 04:15 | 10.3 | 86.0 | 1012.4 | 4.8 | NNE | 0.0 | ||||||||||
| 04:30 | 9.7 | 87.0 | 1012.7 | NNE | 4.8 | NNE | 0.0 | |||||||||
| 04:45 | 9.6 | 88.0 | 1012.5 | 4.8 | NNE | 0.0 | ||||||||||
| 05:00 | 9.4 | 87.0 | 1012.4 | 1.6 | N | 4.8 | NNE | 0.0 | ||||||||
| 05:15 | 9.2 | 86.0 | 1012.4 | 3.2 | 4.8 | NNE | 0.0 | |||||||||
| 05:30 | 9.6 | 85.0 | 1012.4 | 1.6 | N | 4.8 | NNE | 0.0 | ||||||||
| 05:45 | 9.6 | 83.0 | 1012.4 | 3.2 | 4.8 | NNE | 0.0 | |||||||||
| 06:00 | 9.3 | 84.0 | 1012.3 | 4.8 | N | 4.8 | N | 0.0 | ||||||||
| 06:15 | 9.5 | 84.0 | 1012.1 | 3.2 | 4.8 | N | 0.0 | |||||||||
| 06:30 | 9.6 | 83.0 | 1012.2 | 4.8 | N | 4.8 | N | 0.0 | ||||||||
| 06:45 | 9.1 | 83.0 | 1012.2 | 1.6 | 4.8 | N | 0.0 | |||||||||
| 07:00 | 9.6 | 83.0 | 1012.3 | 3.2 | N | 4.8 | N | 0.0 | ||||||||
| 07:15 | 9.6 | 82.0 | 1012.3 | 4.8 | N | 0.0 | ||||||||||
| 07:30 | 9.3 | 83.0 | 1012.4 | NNE | 4.8 | N | 0.0 | |||||||||
| 07:45 | 9.5 | 84.0 | 1012.4 | 3.2 | 4.8 | N | 0.0 | |||||||||
| 08:00 | 10.0 | 84.0 | 1012.4 | NNE | 4.8 | N | 0.0 | |||||||||
| 08:15 | 11.0 | 82.0 | 1012.6 | 4.8 | N | 0.0 | ||||||||||
| 08:30 | 12.1 | 80.0 | 1012.5 | 1.6 | N | 4.8 | N | 0.0 | ||||||||
| 08:45 | 13.0 | 78.0 | 1012.6 | 1.6 | 4.8 | N | 0.0 | |||||||||
| 09:00 | 12.4 | 78.0 | 1012.7 | NNE | 4.8 | N | 0.0 | |||||||||
| 09:15 | 12.4 | 80.0 | 1012.7 | 4.8 | N | 0.0 | ||||||||||
| 09:30 | 12.7 | 81.0 | 1012.9 | 3.2 | N | 4.8 | N | 0.0 | ||||||||
| 09:45 | 12.4 | 80.0 | 1013.0 | 8.0 | 8.0 | WSW | 0.0 | |||||||||
| 10:00 | 12.6 | 78.0 | 1013.1 | 6.4 | N | 8.0 | WSW | 0.0 | ||||||||
| 10:15 | 13.5 | 79.0 | 1013.1 | 9.7 | 9.7 | SSW | 0.0 | |||||||||
| 10:30 | 13.8 | 75.0 | 1013.1 | 12.9 | NNE | 12.9 | NNE | 0.0 | ||||||||
| 10:45 | 13.8 | 72.0 | 1013.1 | 9.7 | 12.9 | NNE | 0.0 | |||||||||
| 11:00 | 14.1 | 73.0 | 1013.1 | 16.1 | NNE | 16.1 | NNE | 0.0 | ||||||||
| 11:15 | 14.8 | 73.0 | 1013.1 | 16.1 | 16.1 | W | 0.0 | |||||||||
| 11:30 | 14.5 | 71.0 | 1013.1 | 4.8 | N | 16.1 | W | 0.0 | ||||||||
| 11:45 | 14.2 | 72.0 | 1013.1 | 16.1 | 16.1 | WSW | 0.0 | |||||||||
| 12:00 | 14.7 | 71.0 | 1013.1 | 14.5 | 16.1 | WSW | 0.0 | |||||||||
| 12:15 | 15.0 | 68.0 | 1013.1 | 14.5 | 16.1 | WSW | 0.0 | |||||||||
| 12:30 | 15.3 | 66.0 | 1013.1 | 12.9 | NNE | 16.1 | WSW | 0.0 | ||||||||
| 12:45 | 15.4 | 66.0 | 1013.0 | 17.7 | 17.7 | SW | 0.0 | |||||||||
| 13:00 | 16.2 | 64.0 | 1012.8 | 12.9 | NNE | 17.7 | SW | 0.0 | ||||||||
| 13:15 | 16.5 | 61.0 | 1013.0 | 12.9 | 17.7 | SW | 0.0 | |||||||||
| 13:30 | 16.3 | 60.0 | 1012.6 | 11.3 | 17.7 | SW | 0.0 | |||||||||
| 13:45 | 16.4 | 59.0 | 1012.7 | 14.5 | 17.7 | SW | 0.0 | |||||||||
| 14:00 | 16.6 | 57.0 | 1012.4 | 14.5 | NNE | 17.7 | SW | 0.0 | ||||||||
| 14:15 | 16.8 | 53.0 | 1012.0 | 8.0 | 17.7 | SW | 0.0 | |||||||||
| 14:30 | 17.2 | 50.0 | 1012.1 | 11.3 | NNE | 17.7 | SW | 0.0 | ||||||||
| 14:45 | 17.8 | 49.0 | 1011.8 | 16.1 | 17.7 | SW | 0.0 | |||||||||
| 15:00 | 17.4 | 50.0 | 1011.6 | 3.2 | N | 17.7 | SW | 0.0 | ||||||||
| 15:15 | 18.1 | 49.0 | 1011.6 | 12.9 | 17.7 | SW | 0.0 | |||||||||
| 15:30 | 18.3 | 49.0 | 1011.5 | 11.3 | NNE | 17.7 | SW | 0.0 | ||||||||
| 15:45 | 18.7 | 47.0 | 1011.3 | 11.3 | 17.7 | SW | 0.0 | |||||||||
| 16:00 | 17.9 | 47.0 | 1011.2 | 12.9 | NNE | 17.7 | SW | 0.0 | ||||||||
| 16:15 | 17.3 | 49.0 | 1010.9 | 11.3 | NNE | 17.7 | SW | 0.0 | ||||||||
| 16:30 | 18.1 | 47.0 | 1010.5 | 6.4 | N | 17.7 | SW | 0.0 | ||||||||
| 16:45 | 18.7 | 43.0 | 1010.5 | 3.2 | 17.7 | SW | 0.0 | |||||||||
| 17:00 | 18.4 | 45.0 | 1010.3 | 11.3 | 17.7 | SW | 0.0 | |||||||||
| 17:15 | 17.6 | 47.0 | 1010.3 | 11.3 | 17.7 | SW | 0.0 | |||||||||
| 17:30 | 17.2 | 49.0 | 1010.3 | 11.3 | NNE | 17.7 | SW | 0.0 | ||||||||
| 17:45 | 16.1 | 59.0 | 1010.6 | 11.3 | 17.7 | SW | 0.0 | |||||||||
| 18:00 | 13.5 | 72.0 | 1011.3 | 12.9 | NNE | 17.7 | SW | 0.0 | ||||||||
| 18:15 | 12.8 | 79.0 | 1011.2 | 6.4 | 17.7 | SW | 0.2 | |||||||||
| 18:30 | 12.7 | 79.0 | 1010.9 | 6.4 | N | 17.7 | SW | 0.0 | ||||||||
| Máxima | 18.7 | 89.0 | 1013.5 | 17.7 | 17.7 | SW | 0.2 | |||||||||
| Mínima | 9.1 | 43.0 | 1010.3 | |||||||||||||
| Total | 0.2 | |||||||||||||||